When you browse on this site, cookies collect data to enhance your experience and personalize the content and advertising you see.
Visit our Privacy Policy to learn more. By continuing to use the site, you agree to this use of cookies and data.
  • In Hungary
  • List of Countries
  • For 7 days
  • Water Temperature
  • Satellite Maps
  • Weather Map
  • News
  • Weather Widgets
  • user-avatar
    Login

    Hourly Weather Skala Prinou

    Today, 19 June, Wednesday

    Time Temperature Precipitation Wind Pressure Humidity
    00:00 +24°C° 0.2 mm 2 mps 758 mmHg 67%
    01:00 +24°C° 0.2 mm 2 mps 757 mmHg 70%
    02:00 +23°C° 0.2 mm 2 mps 757 mmHg 73%
    03:00 +23°C° 0 mm 2 mps 757 mmHg 73%
    04:00 +23°C° 0 mm 2 mps 757 mmHg 73%
    05:00 +21°C° 0 mm 2 mps 757 mmHg 74%
    06:00 +24°C° 0 mm 2 mps 757 mmHg 68%
    07:00 +26°C° 0 mm 2 mps 757 mmHg 62%
    08:00 +27°C° 0 mm 1 mps 757 mmHg 56%
    09:00 +28°C° 0.1 mm 2 mps 757 mmHg 54%
    10:00 +29°C° 0.1 mm 2 mps 757 mmHg 52%
    11:00 +30°C° 0.1 mm 2 mps 757 mmHg 50%
    12:00 +30°C° 0.1 mm 2 mps 757 mmHg 50%
    13:00 +30°C° 0.1 mm 3 mps 756 mmHg 51%
    14:00 +30°C° 0.1 mm 3 mps 756 mmHg 51%
    15:00 +30°C° 0.1 mm 3 mps 756 mmHg 52%
    16:00 +30°C° 0.1 mm 3 mps 755 mmHg 53%
    17:00 +29°C° 0.1 mm 2 mps 755 mmHg 54%
    18:00 +28°C° 0 mm 2 mps 755 mmHg 57%
    19:00 +27°C° 0 mm 2 mps 755 mmHg 60%
    20:00 +26°C° 0 mm 1 mps 755 mmHg 63%
    21:00 +26°C° 0 mm 1 mps 756 mmHg 63%
    22:00 +25°C° 0 mm 1 mps 756 mmHg 64%
    23:00 +24°C° 0 mm 2 mps 756 mmHg 65%

    Tomorrow, 20 June, Thursday

    Time Temperature Precipitation Wind Pressure Humidity
    00:00 +24°C° 0 mm 2 mps 756 mmHg 63%
    01:00 +23°C° 0 mm 2 mps 756 mmHg 62%
    02:00 +23°C° 0 mm 2 mps 756 mmHg 61%
    03:00 +23°C° 0 mm 2 mps 756 mmHg 61%
    04:00 +23°C° 0 mm 2 mps 756 mmHg 61%
    05:00 +23°C° 0 mm 2 mps 756 mmHg 61%
    06:00 +25°C° 0 mm 1 mps 756 mmHg 57%
    07:00 +26°C° 0 mm 1 mps 756 mmHg 52%
    08:00 +28°C° 0 mm 1 mps 756 mmHg 48%
    09:00 +30°C° 0 mm 1 mps 756 mmHg 44%
    10:00 +31°C° 0 mm 1 mps 756 mmHg 40%
    11:00 +32°C° 0 mm 2 mps 756 mmHg 36%
    12:00 +32°C° 0 mm 2 mps 755 mmHg 37%
    13:00 +33°C° 0 mm 3 mps 755 mmHg 37%
    14:00 +33°C° 0 mm 4 mps 755 mmHg 38%
    15:00 +33°C° 0 mm 3 mps 755 mmHg 40%
    16:00 +31°C° 0 mm 3 mps 755 mmHg 41%
    17:00 +31°C° 0 mm 3 mps 754 mmHg 43%
    18:00 +30°C° 0 mm 2 mps 755 mmHg 47%
    19:00 +29°C° 0 mm 2 mps 755 mmHg 51%
    20:00 +28°C° 0 mm 1 mps 755 mmHg 56%
    21:00 +27°C° 0 mm 1 mps 755 mmHg 58%
    22:00 +26°C° 0 mm 2 mps 756 mmHg 60%
    23:00 +25°C° 0 mm 2 mps 756 mmHg 62%

    Day after tomorrow, 21 June, Friday

    Time Temperature Precipitation Wind Pressure Humidity
    00:00 +25°C° 0 mm 2 mps 756 mmHg 61%
    01:00 +24°C° 0 mm 2 mps 756 mmHg 60%
    02:00 +24°C° 0 mm 2 mps 756 mmHg 59%
    03:00 +23°C° 0 mm 2 mps 756 mmHg 59%
    04:00 +23°C° 0 mm 2 mps 756 mmHg 59%
    05:00 +23°C° 0 mm 2 mps 756 mmHg 58%
    06:00 +25°C° 0 mm 2 mps 756 mmHg 54%
    07:00 +27°C° 0 mm 2 mps 757 mmHg 50%
    08:00 +29°C° 0 mm 1 mps 757 mmHg 46%
    09:00 +30°C° 0 mm 1 mps 757 mmHg 42%
    10:00 +31°C° 0 mm 1 mps 757 mmHg 39%
    11:00 +33°C° 0 mm 1 mps 757 mmHg 36%
    12:00 +34°C° 0 mm 2 mps 757 mmHg 36%
    13:00 +34°C° 0 mm 2 mps 756 mmHg 36%
    14:00 +34°C° 0 mm 3 mps 756 mmHg 37%
    15:00 +34°C° 0 mm 3 mps 756 mmHg 38%
    16:00 +34°C° 0 mm 2 mps 756 mmHg 39%
    17:00 +32°C° 0 mm 2 mps 755 mmHg 40%
    18:00 +31°C° 0 mm 2 mps 756 mmHg 45%
    19:00 +29°C° 0 mm 2 mps 756 mmHg 50%
    20:00 +28°C° 0 mm 2 mps 756 mmHg 55%
    21:00 +27°C° 0 mm 2 mps 756 mmHg 58%
    22:00 +27°C° 0 mm 2 mps 756 mmHg 60%
    23:00 +26°C° 0 mm 2 mps 757 mmHg 62%

    22 June, Saturday

    Time Temperature Precipitation Wind Pressure Humidity
    00:00 +26°C° 0 mm 2 mps 757 mmHg 63%
    01:00 +25°C° 0 mm 2 mps 757 mmHg 64%
    02:00 +25°C° 0 mm 2 mps 757 mmHg 65%
    03:00 +24°C° 0 mm 2 mps 757 mmHg 65%
    04:00 +24°C° 0 mm 2 mps 757 mmHg 65%
    05:00 +24°C° 0 mm 2 mps 757 mmHg 65%
    06:00 +26°C° 0 mm 1 mps 757 mmHg 59%
    07:00 +28°C° 0 mm 1 mps 757 mmHg 54%
    08:00 +30°C° 0 mm 1 mps 757 mmHg 49%
    09:00 +31°C° 0 mm 1 mps 757 mmHg 46%
    10:00 +32°C° 0 mm 1 mps 757 mmHg 42%
    11:00 +34°C° 0 mm 1 mps 757 mmHg 39%
    12:00 +35°C° 0 mm 2 mps 757 mmHg 39%
    13:00 +35°C° 0 mm 2 mps 757 mmHg 40%
    14:00 +35°C° 0 mm 3 mps 757 mmHg 40%
    15:00 +34°C° 0 mm 3 mps 757 mmHg 43%
    16:00 +33°C° 0 mm 3 mps 757 mmHg 45%
    17:00 +33°C° 0 mm 3 mps 756 mmHg 48%
    18:00 +31°C° 0 mm 2 mps 756 mmHg 52%
    19:00 +30°C° 0 mm 2 mps 757 mmHg 56%
    20:00 +29°C° 0 mm 2 mps 757 mmHg 60%
    21:00 +28°C° 0 mm 2 mps 757 mmHg 61%
    22:00 +27°C° 0 mm 2 mps 757 mmHg 62%
    23:00 +27°C° 0 mm 2 mps 758 mmHg 63%

    23 June, Sunday

    Time Temperature Precipitation Wind Pressure Humidity
    00:00 +26°C° 0 mm 2 mps 758 mmHg 62%
    01:00 +26°C° 0 mm 2 mps 758 mmHg 62%
    02:00 +25°C° 0 mm 2 mps 757 mmHg 62%
    03:00 +25°C° 0 mm 2 mps 757 mmHg 61%
    04:00 +25°C° 0 mm 2 mps 757 mmHg 61%
    05:00 +25°C° 0 mm 2 mps 757 mmHg 61%
    06:00 +27°C° 0 mm 2 mps 758 mmHg 57%
    07:00 +29°C° 0 mm 2 mps 758 mmHg 53%
    08:00 +30°C° 0 mm 2 mps 758 mmHg 50%
    09:00 +31°C° 0 mm 2 mps 758 mmHg 47%
    10:00 +32°C° 0 mm 2 mps 758 mmHg 45%
    11:00 +34°C° 0 mm 2 mps 758 mmHg 43%
    12:00 +34°C° 0 mm 2 mps 758 mmHg 43%
    13:00 +35°C° 0 mm 3 mps 758 mmHg 43%
    14:00 +35°C° 0 mm 3 mps 757 mmHg 43%
    15:00 +35°C° 0 mm 3 mps 757 mmHg 43%
    16:00 +35°C° 0 mm 3 mps 757 mmHg 44%
    17:00 +34°C° 0 mm 2 mps 757 mmHg 44%
    18:00 +32°C° 0.1 mm 2 mps 757 mmHg 51%
    19:00 +30°C° 0.1 mm 1 mps 757 mmHg 58%
    20:00 +28°C° 0.1 mm 1 mps 757 mmHg 65%
    21:00 +27°C° 0.2 mm 1 mps 757 mmHg 67%
    22:00 +27°C° 0.2 mm 1 mps 758 mmHg 70%
    23:00 +26°C° 0.2 mm 1 mps 758 mmHg 72%

    24 June, Monday

    Time Temperature Precipitation Wind Pressure Humidity
    00:00 +26°C° 0 mm 1 mps 758 mmHg 72%
    01:00 +26°C° 0 mm 1 mps 758 mmHg 72%
    02:00 +26°C° 0 mm 1 mps 758 mmHg 72%
    03:00 +25°C° 0 mm 1 mps 758 mmHg 70%
    04:00 +25°C° 0 mm 2 mps 758 mmHg 69%
    05:00 +25°C° 0 mm 2 mps 758 mmHg 67%
    06:00 +27°C° 0 mm 2 mps 758 mmHg 61%
    07:00 +29°C° 0 mm 2 mps 758 mmHg 55%
    08:00 +31°C° 0 mm 1 mps 759 mmHg 49%
    09:00 +32°C° 0 mm 2 mps 759 mmHg 45%
    10:00 +35°C° 0 mm 2 mps 759 mmHg 42%
    11:00 +36°C° 0 mm 2 mps 759 mmHg 38%
    12:00 +36°C° 0 mm 2 mps 758 mmHg 39%
    13:00 +36°C° 0 mm 2 mps 758 mmHg 40%
    14:00 +36°C° 0 mm 2 mps 758 mmHg 42%
    15:00 +34°C° 0.1 mm 2 mps 758 mmHg 48%
    16:00 +33°C° 0.1 mm 3 mps 758 mmHg 54%
    17:00 +30°C° 0.1 mm 3 mps 757 mmHg 60%
    18:00 +29°C° 0.1 mm 3 mps 758 mmHg 63%
    19:00 +29°C° 0.1 mm 3 mps 758 mmHg 66%
    20:00 +28°C° 0.1 mm 3 mps 758 mmHg 69%
    21:00 +27°C° 0 mm 3 mps 758 mmHg 69%
    22:00 +26°C° 0 mm 3 mps 759 mmHg 68%
    23:00 +26°C° 0 mm 3 mps 759 mmHg 68%
    Show more